Location: Molino di Ancona
(43.6167°N, 13.3667°E)
Time: 05:09:55
(UTC+00:00)

Cosmos 44 Rocket - Pass Details

Date: 15 December 2019
Orbit: 660 x 730 km, 65.1° (Epoch: 25 January)

Event Time Altitude Azimuth Distance (km) Brightness Sun altitude
Rises 05:13:02 0° 213° (SSW) 3,061 6.5 -13.8°
Reaches altitude 10° 05:15:22 10° 214° (SW) 2,136 5.7 -13.4°
Maximum altitude 05:20:14 86° 303° (WNW) 688 3.2 -12.6°
Drops below altitude 10° 05:25:02 10° 33° (NNE) 2,108 5.9 -11.8°
Sets 05:27:21 0° 34° (NE) 3,018 6.8 -11.4°
